• Join FlightAware (Why Join?)
  • Login
  • US Flag 
09:59PM EDT


 

Airport Tracker/Info


-or-


 

Live Flight TrackerFlight Track Log ✈ N158RA ✈ 13-Dec-2013 ✈ KMFD - KBKL

Flight Track Log - Related Links

Times and Time Zones

All times are in EST time to prevent confusion due to time zone crossing. See the N158RA flight status page for this flight to view local times or setup timezone preferences in your user account.

Time Position Orientation Groundspeed Altitude Reporting Facility
EST Latitude Longitude Course Direction KTS MPH feet Rate Location/Type
11:41AM 40.8717 -82.4278 43° Northeast 136 157 2,900  Level Cleveland Center
11:42AM 40.9000 -82.3964 40° Northeast 128 147 3,000  Climbing Cleveland Center
11:43AM 41.0150 -82.2802 43° Northeast  Level FlightAware Approximate
11:43AM 40.9308 -82.3603 41° Northeast 124 143 3,000  Level Cleveland Center
11:44AM 41.0473 -82.2406 43° Northeast  Level FlightAware Approximate
11:44AM 40.9564 -82.3367 35° Northeast 133 153 3,000  Level Cleveland Center
11:45AM 41.0795 -82.2010 43° Northeast  Level FlightAware Approximate
11:45AM 40.9847 -82.3056 40° Northeast 127 146 3,000  Level Cleveland Center
11:46AM 41.1117 -82.1614 43° Northeast  Level FlightAware Approximate
11:46AM 41.0006 -82.2722 58° Northeast 127 146 3,100  Level Cleveland Center
11:47AM 41.1439 -82.1218 43° Northeast  Level FlightAware Approximate
11:47AM 41.0214 -82.2286 58° Northeast 131 151 3,000  Level Cleveland Center
11:48AM 41.0428 -82.1822 59° Northeast 131 151 3,000  Level Cleveland Center
11:49AM 41.0617 -82.1381 60° Northeast 132 152 3,000  Level Cleveland Center
11:50AM 41.0794 -82.1050 54° Northeast 130 150 3,000  Level Cleveland Center
11:52AM 41.1092 -82.0572 50° Northeast 130 150 3,000  Level Cleveland Center
11:52AM 41.1250 -82.0236 58° Northeast 131 151 3,000  Level Cleveland Center
11:53AM 41.1436 -81.9822 59° Northeast 130 150 3,000  Level Cleveland Center
11:54AM 41.1644 -81.9411 56° Northeast 129 148 3,000  Level Cleveland Center
11:55AM 41.1803 -81.9050 60° Northeast 129 148 3,000  Level Cleveland Center
11:56AM 41.1967 -81.8631 63° Northeast 130 150 3,000  Level Cleveland Center
11:58AM 41.2183 -81.8111 61° Northeast 134 154 3,000  Level Cleveland Center
11:58AM 41.2342 -81.7775 58° Northeast 130 150 3,100  Climbing Cleveland Center
12:00PM 41.2569 -81.7339 55° Northeast 128 147 3,000 -60 Descending Cleveland Center
12:00PM 41.2808 -81.7042 43° Northeast 127 146 3,000  Level Cleveland Center
12:01PM 41.3042 -81.6772 41° Northeast 128 147 3,000 -60 Level Cleveland Center
12:02PM 41.3356 -81.6544 29° Northeast 122 140 2,900 -120 Descending Cleveland Center
12:04PM 41.3694 -81.6735 337° Northwest  Level FlightAware Approximate